Regional Weather Roundup
Issued by NWS Cleveland, OH

Home | Current Version | Previous Version | Graphics & Text | Print | Product List | Glossary On
Versions: 1 2 3 4 5 6 7 8 9 10 11 12 13 14 15 16 17 18 19 20 21 22 23 24 25 26 27 28 29 30 31 32 33 34 35 36 37 38 39 40 41 42 43 44 45 46 47 48 49 50
000
ASUS41 KCLE 040510
RWRCLE
OHIO REGIONAL WEATHER ROUNDUP
NATIONAL WEATHER SERVICE CLEVELAND, OH
100 AM EDT WED MAY 04 2016

NOTE: "FAIR" INDICATES FEW OR NO CLOUDS BELOW 12,000 FEET WITH NO
SIGNIFICANT WEATHER AND/OR OBSTRUCTIONS TO VISIBILITY.

OHZ001>008-015>018-024>027-034-035-043-044-040600-
   NORTHWEST OHIO

CITY           SKY/WX    TMP DP  RH WIND       PRES   REMARKS
DEFIANCE       PTCLDY    50  43  77 S5        29.76F
FINDLAY        PTCLDY    48  41  76 SW8       29.77F
TOLEDO EXPRESS PTCLDY    49  43  80 S5        29.75F
TOLEDO EXEC    CLEAR     50  43  77 SW8       29.77F
LIMA           CLEAR     50  45  83 S8        29.79F
$$

OHZ009>014-019>023-028>033-038-089-040600-
   NORTHEAST OHIO

CITY           SKY/WX    TMP DP  RH WIND       PRES   REMARKS
CLE-HOPKINS    PTCLDY    48  39  71 S3        29.80F
CLE-LAKEFRONT  CLEAR     51  38  60 SE7       29.77F
CUY CO. ARPT   NOT AVBL
LORAIN-ELYRIA  CLEAR     46  39  76 S5        29.78F
ASHTABULA      CLEAR     40  38  93 CALM      29.79F
AKRON-CANTON   MOCLDY    51  38  60 CALM      29.79F
WOOSTER        CLOUDY    47  44  90 CALM      29.80F
MANSFIELD      CLEAR     49  44  83 SW5       29.79F
YOUNGSTOWN     PTCLDY    44  38  79 CALM      29.79F
$$

OHZ042-051>053-060>062-070>072-077>081-040600-
  SOUTHWEST OHIO

CITY           SKY/WX    TMP DP  RH WIND       PRES   REMARKS
CINC-COVINGTON PTCLDY    49  48  97 SW3       29.84F
CINC-LUNKEN    PTCLDY    51  50  96 CALM      29.85F
HAMILTON       CLEAR     49  47  93 CALM      29.84F
DAYTON         PTCLDY    50  46  86 SW7       29.82F
WRIGHT-PAT AFB CLEAR     45  45 100 S3        29.81F
DAYTON GENERAL CLEAR     51  44  77 SW5       29.82F
WILMINGTON     PTCLDY    51  47  86 W6        29.82F
$$

OHZ036-037-039>041-045>050-054>059-063>069-073>076-082>088-040600-
  CENTRAL AND SOUTHEAST OHIO

CITY           SKY/WX    TMP DP  RH WIND       PRES   REMARKS
COLUMBUS       CLOUDY    50  46  86 CALM      29.80F
OSU AIRPORT    CLOUDY    50  46  86 CALM      29.80F
BOLTON FIELD   CLOUDY    51  48  92 CALM      29.81F
RICKENBACK AFB MOCLDY    51  47  87 CALM      29.80F
NEWARK         CLOUDY    52  47  83 CALM      29.80F
MARION         CLEAR     51  42  71 W6        29.80F
LANCASTER      PTCLDY    51  47  86 CALM      29.81F
ZANESVILLE     CLOUDY    54  50  86 CALM      29.80F
NEW PHILLY     CLOUDY    51  45  79 CALM      29.80F
$$




USA.gov is the U.S. government's official web portal to all federal, state and local government web resources and services.